Location: Carrières
(48.9495°N, 2.0407°E)
Time: 12:42:40
(UTC+00:00)

Cosmos 1726 Rocket - Pass Details

Date: 28 January 2023
Orbit: 602 x 627 km, 82.5° (Epoch: 21 March)

Event Time Altitude Azimuth Distance (km) Brightness Sun altitude
Rises 19:02:05 0° 350° (N) 2,873 7.1 -22.9°
Reaches altitude 10° 19:04:19 10° 352° (N) 1,962 6.2 -23.2°
Enters shadow 19:07:46 56° 1° (N) 726 3.8 -23.8°
